IRIDIUM 33 DEB, 33884

Orbit data source: Space-Track

IRIDIUM 33 DEB, 33884 is space debris in LEO originally from a launch on Sun, 14 Sep 1997 UTC launched from the Tyuratam Missile And Space Complex (TTMTR). The debris from Iridium 33, an American commercial communications satellite, has been tracked extensively since its accidental collision with the defunct Russian satellite Cosmos 2251 in 2009. This event, occurring at high speed in low Earth orbit (LEO), generated thousands of pieces of space debris, significantly increasing the risk of further collisions. The Iridium 33 debris cloud has impacted space traffic management and orbital debris mitigation strategies, making it a subject of ongoing study in space situational awareness.

Loading next visibility...
Identifier
33884, 1997-051BD
Orbit
LEO
Country
Flag of USUS
Related business
Manufacturer
Unknown
Mission
Spacecraft
Bus & Motor
Unknown
Mass
Unknown
Launch date (UTC)
1997-09-14 (28 years ago)
Launch vehicle
Unknown
Launch site
Tyuratam Missile And Space Complex (TTMTR)
Object type
Payload
Rocket body
Debris
Shape & HBR
Unknown shape, 0.2 m
Radar Cross Section
Small (<0.1 m²)

Expand to show TLE details & history
Last TLE update: 6 hours ago

TLE from 6 hours ago
0 IRIDIUM 33 DEB
1 33884U 97051BD  25350.99226946  .00008500  00000-0  11875-2 0  9997
2 33884  86.3695   7.8991 0009261 307.2606 117.9093 14.77513919889104
Epoch: 2025-12-16T23:48Z
TLE epoch observation values (Epoch: 2025-12-16T23:48:52.081Z)
Latitude
65.10276°
Longitude
-67.37187°
Altitude
651.559 km
Speed
7.536 km/s
True Right ascension
01h 02m 51s
True Declination
64° 58' 09"
Sunlit
Object was in full shadow at epoch
Visualization orbit readout
Latitude
Unknown
Longitude
Unknown
Altitude
Unknown
Speed
Unknown
Apparent Right ascension
Unknown
Apparent Declination
Unknown
Sunlit
N/A
Visualization observer readout
Local Sidereal Time
05:00:11
Azimuth
Unknown
Elevation
Unknown
Doppler factor
Unknown
Orbital elements
Apogee altitude
640.581 km
Perigee altitude
627.593 km
Semi-major axis
7,012.224 km
Eccentricity
0.00093
Inclination
86.3695°
RAAN
7.8991°
Arg. of periapsis
307.2606°
True anomaly
118.00303°
Mean anomaly
117.9093°
Eccentric anomaly
117.95617°
Mean motion
3.69623 °/min
Orbital period
97.4 mins
BSTAR
0.0011875
Loading maneuver chart data...
Computing Atmospheric mass density...

Documentation

Showing up to 5 results
|